Home   Weather   Fairfield Park   Past weeks
Flag for USA

Past Weather in Fairfield Park, North Carolina, USA — Yesterday and Last 2 Weeks

Now
43 °F

Sunny.


Feels Like: 38 °F
Forecast: 50 / 36 °F
Wind: 9 mph from Northeast

Location: Raleigh-Durham International Airport

Current Time: Dec 7, 2019 at 9:01:20 am

Latest Report: Dec 7, 2019 at 7:51 am


Visibility: 10 mi

Pressure: 30.30 "Hg

Humidity: 76%

Dew Point: 36 °F

Location of Fairfield ParkLocation

Past Weather in Fairfield Park — Graph

°F

Fairfield Park Temperature Yesterday

Maximum temperature yesterday: 56 °F (at 1:51 pm)
Minimum temperature yesterday: 32 °F (at 2:51 am)
Average temperature yesterday: 46 °F

High & Low Weather Summary for the Past Weeks

 TemperatureHumidityPressure
High65 °F (Dec 1, 2:51 pm)100% (Nov 26, 7:51 am)30.30 "Hg (Nov 26, 7:51 am)
Low32 °F (Nov 25, 5:51 am)28% (Dec 5, 2:51 pm)29.46 "Hg (Dec 1, 3:51 pm)
Average49 °F71%29.92 "Hg
* Reported Nov 22 7:51 am — Dec 7 7:51 am, Fairfield Park. Weather by CustomWeather, © 2019

Note: Actual official high and low records may vary slightly from our data, if they occured in-between our weather recording intervals... More about our weather records

Fairfield Park Weather History for the Previous 24 Hours

Scroll right to see more
 ConditionsComfort  
Time TempWeatherWind HumidityBarometerVisibility
7:51 am
Sat, Dec 7
43 °FSunny.9 mph76%30.30 "Hg10 mi
6:51 am44 °FClear.9 mph73%30.27 "Hg10 mi
5:51 am42 °FClear.3 mph76%30.22 "Hg10 mi
4:51 am45 °FClear.6 mph71%30.20 "Hg10 mi
3:51 am43 °FPassing clouds.No wind79%30.20 "Hg10 mi
2:51 am41 °FPassing clouds.No wind86%30.19 "Hg10 mi
1:51 am42 °FPassing clouds.No wind85%30.18 "Hg10 mi
12:51 am46 °FPassing clouds.No wind77%30.16 "Hg10 mi
11:51 pm
Fri, Dec 6
48 °FPassing clouds.No wind74%30.18 "Hg10 mi
10:51 pm49 °FOvercast.3 mph69%30.18 "Hg10 mi
9:51 pm49 °FOvercast.3 mph69%30.18 "Hg10 mi
8:51 pm50 °FOvercast.6 mph66%30.18 "Hg10 mi
7:51 pm51 °FOvercast.3 mph61%30.18 "Hg10 mi
6:51 pm53 °FOvercast.8 mph56%30.19 "Hg10 mi
5:51 pm53 °FMostly cloudy.6 mph56%30.18 "Hg10 mi
4:51 pm55 °FMostly cloudy.6 mph51%30.17 "Hg10 mi
3:51 pm55 °FMostly cloudy.5 mph49%30.17 "Hg10 mi
2:51 pm56 °FMore clouds than sun.9 mph47%30.16 "Hg10 mi
1:51 pm56 °FMostly cloudy.12 mph46%30.17 "Hg10 mi
12:51 pm55 °FMostly cloudy.9 mph47%30.19 "Hg10 mi
11:51 am53 °FMostly cloudy.9 mph48%30.21 "Hg10 mi
10:51 am51 °FMostly cloudy.6 mph54%30.23 "Hg10 mi
9:51 am46 °FBroken clouds.8 mph63%30.24 "Hg10 mi
Weather by CustomWeather, © 2019

See weather overview

Advertising